Location: Palo Alto
(37.4420°N, 122.1420°W)
Time: 20:56:00
(UTC-07:00)

KAITUO 1B - Visible Passes

Search period start: 22 October 2020 00:00
Search period end: 01 November 2020 00:00
Orbit: 495 x 513 km, 97.4° (Epoch: 22 October)

Date Brightness Start Highest point End Pass type
(mag) Time Alt. Az. Time Alt. Az. Time Alt. Az.
22 Oct ? 06:53:05 10° NE 06:56:13 25° E 06:59:17 10° SSE visible
22 Oct ? 19:02:33 10° S 19:06:13 55° W 19:09:54 10° NNW visible
23 Oct ? 06:35:31 10° ENE 06:37:40 15° E 06:39:48 10° SE visible
23 Oct ? 18:44:04 10° SSE 18:47:48 81° ENE 18:51:33 10° N visible
24 Oct ? 20:03:07 10° W 20:03:27 10° W 20:03:48 10° W visible
25 Oct ? 19:42:20 10° SW 19:44:53 17° W 19:47:27 10° NW visible
26 Oct ? 19:23:03 10° SSW 19:26:21 29° W 19:29:40 10° NW visible
27 Oct ? 06:54:42 10° NE 06:57:52 26° E 07:00:59 10° SSE visible
27 Oct ? 19:04:13 10° S 19:07:52 52° W 19:11:33 10° NNW visible
28 Oct ? 06:37:04 10° NE 06:39:19 15° E 06:41:32 10° SE visible
28 Oct ? 18:45:42 10° SSE 18:49:26 85° ENE 18:53:12 10° N visible
30 Oct ? 19:44:02 10° SW 19:46:30 17° W 19:48:59 10° NW visible
31 Oct ? 19:24:42 10° SSW 19:27:57 28° W 19:31:15 10° NW visible
